Weather Roundup
Issued by NWS

Home | Current Version | Previous Version | Text Only | Print | Product List | Glossary On
Versions: 1 2 3 4 5 6 7 8 9 10 11 12 13 14 15 16 17 18 19 20 21 22 23 24 25 26 27 28 29 30 31 32 33 34 35 36 37 38 39 40 41 42 43 44 45 46 47 48 49 50
000
NZUS93 KARX 012010
HRRWXR

CURRENT HOURLY OBSERVATIONS ACROSS
MUCH OF THE UPPER MISSISSIPPI VALLEY
NATIONAL WEATHER SERVICE LA CROSSE WI
300 PM CDT MON SEP 01 2014


...SOUTHEAST MINNESOTA...


CITY           SKY/WX    TMP DP  RH WIND       PRES   REMARKS
ROCHESTER      MOSUNNY   76  61  59 W8        29.78R
ROCHESTER/MAYO FAIR      75  55  50 W17G28    29.76R
WINONA         MOSUNNY   73  61  64 E5        29.72S
AUSTIN         MOSUNNY   75  59  57 W14       29.79R
ALBERT LEA     MOSUNNY   75  57  53 W13G18    29.80R
DODGE CENTER   MOSUNNY   75  57  53 W18       29.78R
PRESTON        MOSUNNY   74  64  71 NW8       29.78R
OWATONNA       SUNNY     75  55  50 W12       29.79R
FARIBAULT      MOSUNNY   81  54  39 W13       29.78R
$$

...ELSEWHERE IN MINNESOTA...


CITY           SKY/WX    TMP DP  RH WIND       PRES   REMARKS
MINNEAPOLIS    MOSUNNY   76  55  48 W16       29.74R
INTNL FALLS    MOSUNNY   67  54  63 NW12      29.65F
DULUTH         PTSUNNY   71  54  54 W17       29.68R
RED WING       MOSUNNY   75  57  53 NW12      29.72S
REDWOOD FALLS  SUNNY     77  56  48 NW15G21   29.80R
MANKATO        MOSUNNY   73  55  53 W14G20    29.79R
WORTHINGTON    MOSUNNY   75  57  53 W13       29.85S
FAIRMONT       SUNNY     75  55  50 NW14      29.81F
$$

...SOUTHWEST WISCONSIN...


CITY           SKY/WX    TMP DP  RH WIND       PRES   REMARKS
LA CROSSE      MOSUNNY   76  65  68 VRB5      29.72F
PRAIRIE DU CHI MOSUNNY   79  59  50 W13G21    29.73S
BOSCOBEL       MOSUNNY   77  67  71 SW6       29.73S
LONE ROCK      PTSUNNY   80  67  64 W8        29.72S
PLATTEVILLE    MOSUNNY   78  68  71 W16G22    29.76S
FORT MC COY    PTSUNNY   69  66  92 W7        29.74S
CAMP DOUGLAS   LGT RAIN  66  66 100 SW7       29.72R FOG
VIROQUA        MOCLDY    76  63  63 W14       29.75R
WIS DELLS      PTSUNNY   78  64  61 W12       29.72S
$$

...ELSEWHERE IN WISCONSIN...


CITY           SKY/WX    TMP DP  RH WIND       PRES   REMARKS
MILWAUKEE      MOSUNNY   81  62  52 W20G28    29.71S
MADISON        PTSUNNY   78  65  63 VRB5G16   29.73S
GREEN BAY      CLOUDY    71  66  84 SW13G21   29.67S
EAU CLAIRE     MOSUNNY   76  57  51 W13G20    29.70S
BLACK RVR FLS  FAIR      76  64  66 W10       29.70F
MEDFORD        PTSUNNY   70  59  67 W12G20    29.70R
WAUSAU         SUNNY     71  63  75 W10       29.67S
WIS RAPIDS     MOSUNNY   72  64  76 W8        29.71S
MARSHFIELD     PTSUNNY   75  65  70 W12       29.69S
RICE LAKE      MOSUNNY   71  58  63 W12       29.73S
$$

...NORTHEAST IOWA...


CITY           SKY/WX    TMP DP  RH WIND       PRES   REMARKS
WATERLOO       PTSUNNY   75  64  68 NW14      29.78R
DUBUQUE        PTSUNNY   78  66  66 W18G24    29.76S
DECORAH        MOSUNNY   73  66  78 VRB6G17   29.76S
MASON CITY     SUNNY     77  59  53 NW15      29.82R
CHARLES CITY   MOSUNNY   75  66  73 NW12G20   29.79S
OELWEIN        MOSUNNY   72  66  83 W8        29.79R
$$

...ELSEWHERE IN IOWA...


CITY           SKY/WX    TMP DP  RH WIND       PRES   REMARKS
DES MOINES     MOSUNNY   80  62  54 W14       29.82R
IOWA CITY      MOSUNNY   81  67  62 W15       29.79S
FORT DODGE     MOSUNNY   77  59  53 NW9       29.84S
MARSHALLTOWN   MOSUNNY   77  63  61 W15       29.80R
CEDAR RAPIDS   MOSUNNY   78  67  68 W15       29.77S
$$

...NORTHERN ILLINOIS...


CITY           SKY/WX    TMP DP  RH WIND       PRES   REMARKS
CHICAGO-OHARE  PTSUNNY   82  63  52 SW15G24   29.76F
DUPAGE         PTSUNNY   82  66  58 SW14      29.77S
CHICAGO-MIDWAY PTSUNNY   84  66  54 SW16G23   29.76F
MOLINE         PTSUNNY   81  66  60 SW14      29.79R
ROCKFORD       PTSUNNY   82  66  58 SW13      29.76F
STERLING       PTSUNNY   82  66  57 W14G20    29.78S
PEORIA         MOSUNNY   82  65  56 SW16      29.83S
$$

NOTE: "FAIR" INDICATES FEW OR NO CLOUDS BELOW 12,000 FEET WITH NO
SIGNIFICANT WEATHER AND/OR OBSTRUCTIONS TO VISIBILITY. WIND
SPEEDS ARE IN MILES-PER-HOUR.



USA.gov is the U.S. government's official web portal to all federal, state and local government web resources and services.